Flag for Austria Weather past 2 weeks in Krems, Lower Austria, Austria

Now
37 °F

Passing clouds.


Feels Like: 30 °F
Forecast: 25 / 50 °F
Wind: 12 mph from West

Location: Tulln Airport

Current Time: Feb 28, 2015 at 7:00:40 AM

Latest Report: Feb 28, 2015 at 5:50 AM


Visibility: 8 mi

Pressure: 30.07 "Hg

Humidity: 87%

Dew point: 34 °F

Location of KremsLocation

Historic Weather in Krems — Graph

°F

Krems temperature yesterday

Maximum temperature yesterday: 52 °F (at 1:50 PM)
Minimum temperature yesterday: 32 °F (at 4:50 AM)
Average temperature yesterday: 42 °F

Past Weeks' High & Low Weather Summary

 TemperatureHumidityPressure
High52 °F (Feb 20, 1:50 PM)100% (Feb 13, 5:50 AM)30.74 "Hg (Feb 13, 5:50 AM)
Low23 °F (Feb 20, 4:50 AM)46% (Feb 16, 12:50 PM)29.56 "Hg (Feb 21, 7:50 PM)
Average39 °F78%30.07 "Hg
* Reported Feb 13 5:50 AM — Feb 28 5:50 AM, Krems, Weather by CustomWeather, © 2015

Note: Actual official high and low records may vary slightly from our data, if they occured in-between our weather recording intervals... More about our weather records

Advertising

Krems weather history for previous 24 hours

 ConditionsComfort  
Time TempWeatherWind HumidityBarometerVisibility
5:50 AM
Sat, Feb 28
37 °FPassing clouds.12 mph87%30.07 "Hg7 mi
4:50 AM37 °FPartly cloudy.9 mph87%30.07 "Hg6 mi
9:50 PM
Fri, Feb 27
37 °FPassing clouds.7 mph93%30.01 "Hg7 mi
8:50 PM39 °FPassing clouds.5 mph87%29.98 "Hg9 mi
7:50 PM41 °FPassing clouds.8 mph81%29.95 "Hg9 mi
6:50 PM43 °FPassing clouds.10 mph76%29.92 "Hg9 mi
5:50 PM45 °FPassing clouds.9 mph71%29.89 "Hg9 mi
4:50 PM46 °FPassing clouds.6 mph71%29.86 "Hg9 mi
3:50 PM50 °FPassing clouds.14 mph67%29.86 "Hg11 mi
2:50 PM52 °FPassing clouds.14 mph58%29.86 "Hg11 mi
1:50 PM52 °FScattered clouds.12 mph62%29.83 "Hg11 mi
12:50 PM50 °FScattered clouds.9 mph62%29.86 "Hg7 mi
11:50 AM46 °FScattered clouds.13 mph66%29.89 "Hg7 mi
10:50 AM43 °FPartly sunny.8 mph76%29.89 "Hg6 mi
9:50 AM41 °FPartly sunny.7 mph81%29.92 "Hg5 mi
8:50 AM37 °FPartly sunny.6 mph93%29.92 "Hg4 mi
7:50 AM37 °FPartly sunny.6 mph93%29.92 "Hg4 mi
Weather by CustomWeather, © 2015

See weather overviewHow to use our weather pages